"Pseudo-MPEC" for P10Sy4e

Created 2019 Oct 10 11:07:34 UT using Find_Orb

Click here for an explanation of pseudo-MPECs

 
 Astrometry: 
     P10Sy4e  C2019 10 06Y;rF_+ekQD)MAstrometry_IgQWredacted;=VX*ZH2O=8QBKF:qF51
     P10Sy4e  C2019 10 06,]w+[Z3@)5AJgxhC1rW3^click`QQkM8gtxA1uMl/:2lO-=p`_mqF51
     P10Sy4e  C2019 10 061J*od5Vb#H*wF%.uRT*FfPvNGFh,:9=Cg)3g9Oja3Aa9)\E]@l$pF51
     P10Sy4e  C2019 10 06h,ht$(3BG0c*wPCMu*`ky'y7Gk;q3!i!un*bj+sS5p]XwX^Oa7)hF51
     P10Sy4e  C2019 10 076@i[6:n7*pgROv+HOt?2RpEHTt/F#hereQ6Ctr34fKr\8J6gujOoF51
     P10Sy4e  C2019 10 07/!%aI4[X48c$5]vIL=tDSfID-I?wSi`oj@VnTkB]jFrMwAynox!5F51
     P10Sy4e  C2019 10 07GECJ?@#b'rforRG(FUs'QVqQ)xN$RvNexplanationPxcQC`!'%$F51
     P10Sy4e KC2019 10 10.43207204 29 23.00 -13 32 20.6    ~AAB7 21.4 GVNEOCPH01
     P10Sy4e KC2019 10 10.43896104 29 24.35 -13 33 11.3    ~AAB7 21.6 GVNEOCPH01
     P10Sy4e KC2019 10 10.44823804 29 26.16 -13 34 19.5    ~AAB7 21.2 GVNEOCPH01
     P10Sy4e KC2019 10 10.45314004 29 27.10 -13 34 55.8    ~AAB7 22.5 GVNEOCPH01

Station data:
(F51) Pan-STARRS 1, Haleakala  (N20.707235 W156.255910)  US/Hawaii.
   Observers N. Primak, A. Schultz, S. Watters, J. Thiel, T. Goggia. Measurer
   PS1 Science Consortium. 1.8-m Ritchey-Chrétien + CCD.
(H01) Magdalena Ridge Observatory, Socorro  (N33.984833 W107.189333)  US/New
   Mexico.  Observers W. H. Ryan, E. V. Ryan. Measurer W. H. Ryan. 2.4-m
   f/8.9 reflector + CCD.

Orbital elements:  P10Sy4e
   Perihelion 2019 Oct 7.019882 +/- 0.227 TT =  0:28:37 (JD 2458763.519882)
Epoch 2019 Oct 10.0 TT = JDT 2458766.5   Earth MOID: 0.0907   AutoNEOCP
M   1.53836362 +/- 0.07             (J2000 ecliptic)
n   0.51620892 +/- 0.0167           Peri.  189.57008 +/- 0.20
a   1.53904875 +/- 0.0332           Node   188.99760 +/- 0.14
e   0.2928100 +/- 0.0135            Incl.   20.17319 +/- 0.51
P   1.91/697.38d           H 23.9   G  0.15   U 10.0  
q 1.08839977 +/- 0.00269    Q 1.98969774 +/- 0.0624
From 11 observations 2019 Oct. 6-10; mean residual 0".16
Residuals in arcseconds: 
191006 F51  .10-  .24+    191007 F51  .05-  .04+    191010 H01  .07+  .05+    
191006 F51  .19+  .38-    191007 F51  .07+  .16-    191010 H01  .11+  .10+    
191006 F51  .14+  .14-    191007 F51  .09-  .07+    191010 H01  .11-  .16-    
191006 F51  .17-  .32+    191010 H01  .05-  .02+    

Ephemerides (geocentric):
Date (UTC) HH   RA              Dec         delta   r     elong  mag " sig PA
---- -- -- --  -------------   -----------  ------ ------ -----  --- ---- ---
2019 10 10 11  04 29 28.645   -13 34 49.98  .14715 1.0888 124.5 21.8 1.22   0
2019 10 10 12  04 29 37.635   -13 39 56.17  .14728 1.0888 124.5 21.8 1.22   0
2019 10 10 13  04 29 46.608   -13 45 01.75  .14740 1.0889 124.5 21.8 1.22 179
2019 10 10 14  04 29 55.563   -13 50 06.75  .14753 1.0889 124.4 21.8 1.23 178
2019 10 10 15  04 30 04.500   -13 55 11.15  .14766 1.0889 124.4 21.8 1.23 178
2019 10 10 16  04 30 13.420   -14 00 14.96  .14779 1.0889 124.4 21.8 1.24 177
2019 10 10 17  04 30 22.322   -14 05 18.17  .14792 1.0889 124.3 21.8 1.24 176
2019 10 10 18  04 30 31.206   -14 10 20.80  .14805 1.0889 124.3 21.8 1.24 176
2019 10 10 19  04 30 40.073   -14 15 22.82  .14818 1.0889 124.3 21.8 1.25 175
2019 10 10 20  04 30 48.922   -14 20 24.26  .14831 1.0889 124.2 21.8 1.25 174
2019 10 10 21  04 30 57.754   -14 25 25.09  .14844 1.0889 124.2 21.8 1.26 174
2019 10 10 22  04 31 06.568   -14 30 25.34  .14857 1.0890 124.2 21.8 1.26 173
2019 10 10 23  04 31 15.364   -14 35 24.99  .14870 1.0890 124.1 21.8 1.27 172
2019 10 11 00  04 31 24.143   -14 40 24.04  .14883 1.0890 124.1 21.8 1.27 171
2019 10 11 01  04 31 32.905   -14 45 22.50  .14897 1.0890 124.1 21.8 1.28 171
2019 10 11 02  04 31 41.649   -14 50 20.36  .14910 1.0890 124.1 21.8 1.28 170
2019 10 11 03  04 31 50.375   -14 55 17.63  .14923 1.0890 124.0 21.8 1.29 169
2019 10 11 04  04 31 59.084   -15 00 14.31  .14937 1.0890 124.0 21.8 1.29 169
2019 10 11 05  04 32 07.776   -15 05 10.38  .14950 1.0890 124.0 21.8 1.30 168
2019 10 11 06  04 32 16.450   -15 10 05.87  .14963 1.0891 123.9 21.8 1.31 167
2019 10 11 07  04 32 25.107   -15 15 00.75  .14977 1.0891 123.9 21.8 1.31 166
2019 10 11 08  04 32 33.746   -15 19 55.04  .14990 1.0891 123.9 21.8 1.32 166
2019 10 11 09  04 32 42.368   -15 24 48.74  .15004 1.0891 123.8 21.8 1.33 165
2019 10 11 10  04 32 50.972   -15 29 41.84  .15017 1.0891 123.8 21.8 1.33 164
2019 10 11 11  04 32 59.560   -15 34 34.34  .15031 1.0891 123.8 21.8 1.34 164
2019 10 11 12  04 33 08.129   -15 39 26.25  .15045 1.0891 123.7 21.8 1.35 163
2019 10 11 13  04 33 16.682   -15 44 17.56  .15058 1.0891 123.7 21.8 1.35 162
2019 10 11 14  04 33 25.217   -15 49 08.28  .15072 1.0892 123.7 21.8 1.36 161
2019 10 11 15  04 33 33.735   -15 53 58.40  .15086 1.0892 123.6 21.8 1.37 161
2019 10 11 16  04 33 42.236   -15 58 47.92  .15099 1.0892 123.6 21.8 1.38 160
2019 10 11 17  04 33 50.719   -16 03 36.85  .15113 1.0892 123.6 21.9 1.39 159
2019 10 11 18  04 33 59.186   -16 08 25.19  .15127 1.0892 123.6 21.9 1.40 159
2019 10 11 19  04 34 07.634   -16 13 12.93  .15141 1.0892 123.5 21.9 1.40 158
2019 10 11 20  04 34 16.066   -16 18 00.07  .15155 1.0892 123.5 21.9 1.41 157
2019 10 11 21  04 34 24.481   -16 22 46.62  .15169 1.0893 123.5 21.9 1.42 156
2019 10 11 22  04 34 32.878   -16 27 32.58  .15183 1.0893 123.4 21.9 1.43 156
2019 10 11 23  04 34 41.258   -16 32 17.94  .15197 1.0893 123.4 21.9 1.44 155
2019 10 12 00  04 34 49.622   -16 37 02.70  .15211 1.0893 123.4 21.9 1.45 154
2019 10 12 01  04 34 57.968   -16 41 46.87  .15225 1.0893 123.3 21.9 1.46 154
2019 10 12 02  04 35 06.296   -16 46 30.45  .15239 1.0893 123.3 21.9 1.47 153
2019 10 12 03  04 35 14.608   -16 51 13.43  .15253 1.0894 123.3 21.9 1.48 152
2019 10 12 04  04 35 22.903   -16 55 55.82  .15267 1.0894 123.2 21.9 1.49 152
2019 10 12 05  04 35 31.181   -17 00 37.61  .15282 1.0894 123.2 21.9 1.50 151
2019 10 12 06  04 35 39.441   -17 05 18.81  .15296 1.0894 123.2 21.9 1.51 150
2019 10 12 07  04 35 47.685   -17 09 59.42  .15310 1.0894 123.1 21.9 1.52 150
2019 10 12 08  04 35 55.911   -17 14 39.44  .15325 1.0894 123.1 21.9 1.54 149
2019 10 12 09  04 36 04.121   -17 19 18.86  .15339 1.0894 123.1 21.9 1.55 148
2019 10 12 10  04 36 12.313   -17 23 57.69  .15353 1.0895 123.1 21.9 1.56 148